Tracking 27401 objects as of 3-Jun-2023
HD Live streaming from Space Station
objects crossing your sky now

TEMPSAT 2

Track TEMPSAT 2 now!
10-day predictions
TEMPSAT 2 is classified as:


NORAD ID: 4168
Int'l Code: 1969-082H
Perigee: 902.6 km
Apogee: 929.3 km
Inclination: 70.0 °
Period: 103.2 minutes
Semi major axis: 7286 km
RCS: 0.0673 m2 (small)
Launch date: September 30, 1969
Source: United States (US)
Launch site: AIR FORCE WESTERN TEST RANGE (AFWTR)
Your satellite tracking list
Your tracking list is empty




NASA's NSSDC Master Catalog

Two Line Element Set (TLE):
1 04168U 69082H   23154.56796699  .00000045  00000-0  71298-4 0  9996
2 04168  70.0144 307.9141 0018274 138.2529 221.9975 13.95674475733249
Source of the keplerian elements: AFSPC